Location: ČR
(50.0000°N, 15.0000°E)
Time: 18:36:28
(UTC+00:00)

Envisat - Pass Details

Date: 26 September 2021
Orbit: 764 x 766 km, 98.2° (Epoch: 22 October)

Event Time Altitude Azimuth Distance (km) Brightness Sun altitude
Rises 03:18:34 0° 23° (NNE) 3,244 6.9 -15.7°
Reaches altitude 10° 03:21:14 10° 35° (NE) 2,312 6.3 -15.3°
Maximum altitude 03:25:32 27° 93° (E) 1,451 5.3 -14.6°
Drops below altitude 10° 03:29:47 10° 150° (SSE) 2,296 5.7 -14.0°
Sets 03:32:24 0° 163° (SSE) 3,217 6.3 -13.6°
